Pine Bluffs Muni, Pine Bluffs, WY

12:53 AM MDT on April 25, 2018 (GMT -0600)
Pine Bluffs Muni, Pine Bluffs

Weather History for K82V - May, 2014

Change the Weather History Date:

Tuesday, May 13, 2014

  Actual Average (KCYS) Record (KCYS)
Temperature  
Mean Temperature 39 °F -  
Max Temperature 50 °F 63 °F 84 °F (1944)
Min Temperature 28 °F 36 °F 21 °F (1953)
Degree Days  
Heating Degree Days 26    
Moisture  
Dew Point 27 °F    
Average Humidity 66    
Maximum Humidity 100    
Minimum Humidity 34    
Precipitation  
Precipitation 0.00 in - - ()
Sea Level Pressure  
Sea Level Pressure 30.40 in    
Wind  
Wind Speed 12 mph (NW)    
Max Wind Speed 21 mph    
Max Gust Speed 26 mph    
Visibility 10 miles    
Events      
Averages and records for this station are not official NWS values.
T = Trace of Precipitation, MM = Missing Value Source: NWS Daily Summary

Daily Weather History Graph

Daily Weather History Graph

Search for Another Location

Airport or City:

Astronomy

May. 13, 2014 Rise Set
Actual Time 5:40 AM MDT 8:06 PM MDT
Civil Twilight 5:09 AM MDT 8:37 PM MDT
Nautical Twilight 4:30 AM MDT 9:16 PM MDT
Astronomical Twilight 3:47 AM MDT 9:59 PM MDT
Moon 7:09 PM MDT (5/13) 4:59 AM MDT (5/13)
Length of Visible Light 15h 28m
Length of Day
14h 25m
Waxing Gibbous, 99% of the Moon is Illuminated
May 13
Waxing Gibbous
May 14
Full
May 21
Last Quarter
May 28
New
Jun 5
First Quarter

Hourly Weather History & Observations

Time (MDT) Temp. Windchill Dew Point Humidity Pressure Visibility Wind Dir Wind Speed Gust Speed Precip Events Conditions
12:15 AM 30.2 °F 22.6 °F 26.6 °F 86% 30.38 in 10.0 mi WNW 8.1 mph - N/A   Clear
12:35 AM 30.2 °F 21.3 °F 26.6 °F 86% 30.38 in 10.0 mi NW 10.4 mph - N/A   Clear
12:55 AM 30.2 °F 20.8 °F 26.6 °F 86% 30.38 in 10.0 mi NW 11.5 mph - N/A   Clear
1:15 AM 30.2 °F 20.8 °F 26.6 °F 86% 30.39 in 10.0 mi NW 11.5 mph - N/A   Clear
1:35 AM 30.2 °F 20.8 °F 26.6 °F 86% 30.37 in 10.0 mi NW 11.5 mph - N/A   Clear
1:55 AM 30.2 °F 21.3 °F 26.6 °F 86% 30.37 in 10.0 mi NW 10.4 mph - N/A   Clear
2:15 AM 30.2 °F 21.3 °F 26.6 °F 86% 30.37 in 10.0 mi NW 10.4 mph - N/A   Clear
2:35 AM 30.2 °F 21.3 °F 26.6 °F 86% 30.37 in 10.0 mi NW 10.4 mph - N/A   Clear
2:55 AM 30.2 °F 21.3 °F 26.6 °F 86% 30.37 in 10.0 mi NW 10.4 mph - N/A   Clear
3:15 AM 30.2 °F 21.3 °F 26.6 °F 86% 30.36 in 10.0 mi WNW 10.4 mph - N/A   Clear
3:35 AM 30.2 °F 20.2 °F 24.8 °F 80% 30.37 in 10.0 mi NW 12.7 mph - N/A   Clear
3:55 AM 30.2 °F 20.2 °F 24.8 °F 80% 30.37 in 10.0 mi NW 12.7 mph 17.3 mph N/A   Clear
4:15 AM 30.2 °F 21.3 °F 24.8 °F 80% 30.37 in 10.0 mi WNW 10.4 mph - N/A   Clear
4:35 AM 30.2 °F 20.8 °F 23.0 °F 75% 30.37 in 10.0 mi WNW 11.5 mph - N/A   Clear
4:55 AM 30.2 °F 20.8 °F 23.0 °F 75% 30.37 in 10.0 mi WNW 11.5 mph - N/A   Clear
5:15 AM 30.2 °F 21.3 °F 23.0 °F 75% 30.37 in 10.0 mi WNW 10.4 mph - N/A   Clear
5:35 AM 28.4 °F 18.0 °F 23.0 °F 80% 30.37 in 10.0 mi WNW 12.7 mph - N/A   Clear
5:55 AM 28.4 °F 18.5 °F 23.0 °F 80% 30.38 in 10.0 mi WNW 11.5 mph - N/A   Clear
6:15 AM 30.2 °F 21.3 °F 23.0 °F 75% 30.39 in 10.0 mi WNW 10.4 mph - N/A   Clear
7:15 AM 33.8 °F 25.3 °F 24.8 °F 70% 30.40 in 10.0 mi WNW 11.5 mph - N/A   Clear
7:35 AM 33.8 °F 23.5 °F 24.8 °F 70% 30.40 in 10.0 mi WNW 16.1 mph 20.7 mph N/A   Clear
8:15 AM 37.4 °F 28.2 °F 26.6 °F 65% 30.41 in 10.0 mi WNW 16.1 mph - N/A   Clear
10:35 AM 44.6 °F 37.4 °F 26.6 °F 49% 30.42 in 10.0 mi NW 16.1 mph 23.0 mph N/A   Clear
10:55 AM 44.6 °F 36.9 °F 26.6 °F 49% 30.43 in 10.0 mi NW 18.4 mph 21.9 mph N/A   Clear
11:15 AM 44.6 °F 36.6 °F 26.6 °F 49% 30.43 in 10.0 mi NW 19.6 mph 24.2 mph N/A   Clear
11:35 AM 44.6 °F 36.6 °F 23.0 °F 43% 30.43 in 10.0 mi NNW 19.6 mph 25.3 mph N/A   Clear
11:55 AM 46.4 °F 40.1 °F 23.0 °F 40% 30.42 in 10.0 mi NNW 15.0 mph 25.3 mph N/A   Scattered Clouds
12:15 PM 46.4 °F 39.0 °F 24.8 °F 43% 30.43 in 10.0 mi NW 19.6 mph 26.5 mph N/A   Scattered Clouds
12:35 PM 46.4 °F 39.2 °F 23.0 °F 40% 30.42 in 10.0 mi NW 18.4 mph 25.3 mph N/A   Scattered Clouds
12:55 PM 44.6 °F 37.8 °F 21.2 °F 39% 30.42 in 10.0 mi North 15.0 mph - N/A   Scattered Clouds
1:15 PM 46.4 °F 39.8 °F 23.0 °F 40% 30.41 in 10.0 mi NNW 16.1 mph 23.0 mph N/A   Scattered Clouds
1:35 PM 46.4 °F 39.5 °F 23.0 °F 40% 30.41 in 10.0 mi NNW 17.3 mph 26.5 mph N/A   Scattered Clouds
1:55 PM 48.2 °F - 21.2 °F 34% 30.41 in 10.0 mi NW 11.5 mph 24.2 mph N/A   Clear
2:15 PM 48.2 °F - 23.0 °F 37% 30.41 in 10.0 mi NW 15.0 mph 21.9 mph N/A   Scattered Clouds
2:35 PM 48.2 °F - 23.0 °F 37% 30.40 in 10.0 mi WNW 13.8 mph 23.0 mph N/A   Mostly Cloudy
2:55 PM 48.2 °F - 24.8 °F 40% 30.40 in 10.0 mi WNW 16.1 mph 26.5 mph N/A   Scattered Clouds
3:15 PM 50.0 °F - 24.8 °F 37% 30.40 in 10.0 mi WNW 17.3 mph 25.3 mph N/A   Clear
3:35 PM 48.2 °F - 23.0 °F 37% 30.39 in 10.0 mi WNW 15.0 mph 25.3 mph N/A   Scattered Clouds
3:55 PM 48.2 °F - 23.0 °F 37% 30.39 in 10.0 mi WNW 17.3 mph 24.2 mph N/A   Clear
4:15 PM 48.2 °F - 24.8 °F 40% 30.39 in 10.0 mi WNW 15.0 mph 26.5 mph N/A   Clear
4:35 PM 50.0 °F - 26.6 °F 40% 30.39 in 10.0 mi NW 17.3 mph 24.2 mph N/A   Scattered Clouds
4:55 PM 48.2 °F - 24.8 °F 40% 30.39 in 10.0 mi NW 18.4 mph 26.5 mph N/A   Clear
5:15 PM 50.0 °F - 26.6 °F 40% 30.39 in 10.0 mi WNW 18.4 mph 25.3 mph N/A   Clear
5:35 PM 48.2 °F - 26.6 °F 43% 30.39 in 10.0 mi NW 20.7 mph 26.5 mph N/A   Clear
6:15 PM 44.6 °F 37.2 °F 32.0 °F 61% 30.39 in 10.0 mi North 17.3 mph 26.5 mph N/A   Scattered Clouds
6:35 PM 44.6 °F 37.4 °F 30.2 °F 57% 30.39 in 10.0 mi NW 16.1 mph 20.7 mph N/A   Clear
6:55 PM 44.6 °F 36.6 °F 32.0 °F 61% 30.39 in 10.0 mi NW 19.6 mph 25.3 mph N/A   Clear
7:15 PM 42.8 °F 37.0 °F 32.0 °F 66% 30.39 in 10.0 mi WNW 10.4 mph - N/A   Clear
7:35 PM 42.8 °F 36.2 °F 30.2 °F 61% 30.39 in 10.0 mi WNW 12.7 mph - N/A   Clear
7:55 PM 41.0 °F 34.7 °F 30.2 °F 65% 30.39 in 10.0 mi WNW 10.4 mph - N/A   Clear
8:15 PM 39.2 °F 33.6 °F 32.0 °F 75% 30.40 in 10.0 mi WNW 8.1 mph - N/A   Scattered Clouds
8:35 PM 37.4 °F 31.4 °F 32.0 °F 81% 30.40 in 10.0 mi WNW 8.1 mph - N/A   Scattered Clouds
8:55 PM 37.4 °F 28.9 °F 32.0 °F 81% 30.41 in 10.0 mi WNW 13.8 mph - N/A   Clear
9:15 PM 37.4 °F 30.3 °F 32.0 °F 81% 30.41 in 10.0 mi WNW 10.4 mph - N/A   Clear
9:35 PM 37.4 °F 29.8 °F 32.0 °F 81% 30.43 in 10.0 mi WNW 11.5 mph - N/A   Clear
9:55 PM 35.6 °F 29.9 °F 32.0 °F 87% 30.43 in 10.0 mi NNW 6.9 mph - N/A   Clear
10:15 PM 33.8 °F 27.7 °F 32.0 °F 93% 30.43 in 10.0 mi NW 6.9 mph - N/A   Clear
10:35 PM 32.0 °F 26.4 °F 32.0 °F 100% 30.43 in 10.0 mi WNW 5.8 mph - N/A   Clear
10:55 PM 32.0 °F - 32.0 °F 100% 30.43 in 10.0 mi Calm Calm - N/A   Clear
11:15 PM 32.0 °F - 30.2 °F 93% 30.43 in 10.0 mi Calm Calm - N/A   Clear
11:35 PM 32.0 °F 27.5 °F 30.2 °F 93% 30.43 in 10.0 mi WNW 4.6 mph - N/A   Clear
11:55 PM 32.0 °F 27.5 °F 30.2 °F 93% 30.43 in 10.0 mi West 4.6 mph - N/A   Clear